Flag for Egypt Weather past 2 weeks in Port Said, Egypt

Now
59 °F

Clear.


Feels Like: 57 °F
Forecast: 56 / 67 °F
Wind: 9 mph from Southwest

Location: Port Said Airport

Current Time: Dec 29, 2014 at 11:06:19 AM

Latest Report: Dec 29, 2014 at 10:00 AM


Visibility: 4 mi

Pressure: 30.21 "Hg

Humidity: 59%

Dew point: 45 °F

Location of Port SaidLocation

Historic Weather in Port Said — Graph

°F

Port Said temperature yesterday

Maximum temperature yesterday: 66 °F (at 2:00 PM)
Minimum temperature yesterday: 55 °F (at 7:00 AM)
Average temperature yesterday: 60 °F

Past Weeks' High & Low Weather Summary

 TemperatureHumidityPressure
High72 °F (Dec 16, 2:00 PM)100% (Dec 20, 7:00 AM)30.30 "Hg (Dec 20, 7:00 AM)
Low54 °F (Dec 24, 5:00 AM)44% (Dec 17, 1:00 PM)29.98 "Hg (Dec 26, 2:00 PM)
Average63 °F74%30.14 "Hg
* Reported Dec 14 9:00 AM — Dec 29 9:00 AM, Port Said, Weather by CustomWeather, © 2014

Note: Actual official high and low records may vary slightly from our data, if they occured in-between our weather recording intervals... More about our weather records

Advertising

Port Said weather history for previous 24 hours

 ConditionsComfort  
Time TempWeatherWind HumidityBarometerVisibility
9:00 AM
Dec 29
57 °FClear.9 mph67%30.21 "Hg4 mi
8:00 AM54 °FSunny.9 mph77%30.18 "Hg10 mi
7:00 AM54 °FSunny.8 mph77%30.15 "Hg10 mi
6:00 AM55 °FClear.6 mph77%30.15 "Hg10 mi
5:00 AM55 °FClear.6 mph77%30.15 "Hg10 mi
4:00 AM55 °FClear.6 mph77%30.15 "Hg10 mi
3:00 AM57 °FClear.7 mph77%30.15 "Hg10 mi
2:00 AM57 °FClear.7 mph82%30.18 "Hg10 mi
1:00 AM57 °FClear.6 mph82%30.18 "Hg10 mi
12:00 AM57 °FClear.7 mph82%30.18 "Hg10 mi
11:00 PM
Dec 28
59 °FClear.7 mph77%30.18 "Hg10 mi
10:00 PM59 °FClear.7 mph77%30.18 "Hg10 mi
9:00 PM59 °FClear.3 mph72%30.18 "Hg10 mi
8:00 PM59 °FClear.5 mph77%30.15 "Hg10 mi
7:00 PM61 °FClear.2 mph72%30.15 "Hg10 mi
6:00 PM61 °FClear.3 mph68%30.12 "Hg10 mi
5:00 PM63 °FClear.3 mph64%30.12 "Hg10 mi
4:00 PM66 °FSunny.8 mph52%30.12 "Hg10 mi
3:00 PM64 °FSunny.9 mph56%30.12 "Hg10 mi
2:00 PM66 °FSunny.7 mph49%30.12 "Hg10 mi
1:00 PM64 °FSunny.9 mph52%30.12 "Hg10 mi
12:00 PM63 °FSunny.12 mph56%30.12 "Hg10 mi
Weather by CustomWeather, © 2014

See weather overviewHow to use our weather pages